sat.trackr.live / text

‹ back to catalog

STARLINK-36696

NORAD 67651 · 2026-022D

PAYLOAD ACTIVE UNKNOWN

§ Identity

Operator
Country
US
Launch date
2026-02-02
Launch site
AFWTR
Launch vehicle
Mass (kg)
RCS (m²)

Purposes: comms

External: N2YO · Heavens-Above · Gunter

§ Orbital elements

Epoch: 2026-05-25T01:18:41.772096Z

Period
93.91 min
Inclination
97.2847°
Eccentricity
0.0001184
Mean motion
15.33457359 rev/d
Perigee alt
464.7 km
Apogee alt
466.3 km
Semi-major
6,843.6 km
B*
5.1859e-4
RAAN
178.2791°
Arg perigee
94.6994°
Mean anomaly
265.4384°
Rev number
1,727

§ Raw data

STARLINK-366961 67651U 26022D   26145.05465014  .00016711  00000+0  51859-3 0  99962 67651  97.2847 178.2791 0001184  94.6994 265.4384 15.33457359 17278

JSON: /api/v1/satellites/67651 · /tle

For live sub-satellite position, see the globe view (requires WebGL).

§ Visibility from observer

Set your observer location to see the next 7 days of passes ≥ 10°. The values pass through the URL so the page stays shareable.

No JS? Fill the form by hand. The geolocation button needs JavaScript.